2024-01-29 16:15:00,4.752331349206353
2024-01-29 17:15:00,4.749355158730163
2024-01-29 18:15:00,4.751240079365083
2024-01-29 19:15:00,4.750595238095242
2024-01-29 20:15:00,4.747594246031749
2024-01-29 21:15:00,4.7493055555555586
2024-01-29 22:15:00,4.771378968253972
2024-01-29 23:15:00,4.79151785714286
2024-01-30 00:15:00,4.821924603174606
2024-01-30 01:15:00,4.847098214285717
2024-01-30 02:15:00,4.883754960317463
2024-01-30 03:15:00,4.928596230158734
2024-01-30 04:15:00,4.9246279761904805
2024-01-30 05:15:00,4.958878968253972
2024-01-30 06:15:00,4.970858134920639
2024-01-30 07:15:00,4.973040674603179
2024-01-30 08:15:00,4.974727182539686
2024-01-30 09:15:00,4.994047619047623
2024-01-30 10:15:00,4.992237103174607
2024-01-30 11:15:00,4.999553571428576
2024-01-30 12:15:00,4.999355158730164
2024-01-30 13:15:00,4.98303571428572
2024-01-30 14:15:00,4.964533730158736
2024-01-30 15:15:00,4.956870039682545
2024-01-30 16:15:00,4.960094246031751
2024-01-30 17:15:00,4.962624007936514
2024-01-30 18:15:00,4.975248015873022
2024-01-30 19:15:00,5.008730158730165
2024-01-30 20:15:00,5.043204365079371
2024-01-30 21:15:00,5.061904761904769
2024-01-30 22:15:00,5.066418650793659
2024-01-30 23:15:00,5.083556547619056
2024-01-31 00:15:00,5.082118055555563
2024-01-31 01:15:00,5.11597222222223
2024-01-31 02:15:00,5.095089285714294
2024-01-31 03:15:00,5.101587301587309
2024-01-31 04:15:00,5.113095238095245
2024-01-31 05:15:00,5.1541170634920705
2024-01-31 06:15:00,5.185193452380959
2024-01-31 07:15:00,5.207663690476197
2024-01-31 08:15:00,5.213120039682546
2024-01-31 09:15:00,5.206746031746039
2024-01-31 10:15:00,5.201537698412705
2024-01-31 11:15:00,5.19804067460318
2024-01-31 12:15:00,5.199627976190481
2024-01-31 13:15:00,5.190922619047624
2024-01-31 14:15:00,5.191840277777784
2024-01-31 15:15:00,5.192658730158735
2024-01-31 16:15:00,5.180580357142863
2024-01-31 17:15:00,5.183903769841275
2024-01-31 18:15:00,5.190476190476197
2024-01-31 19:15:00,5.206101190476197
2024-01-31 20:15:00,5.217336309523815
2024-01-31 21:15:00,5.221006944444452
2024-01-31 22:15:00,5.2179811507936575
2024-01-31 23:15:00,5.217509920634927
2024-02-01 00:15:00,5.221354166666673
2024-02-01 01:15:00,5.220262896825403
2024-02-01 02:15:00,5.223660714285721
2024-02-01 03:15:00,5.222445436507943
2024-02-01 04:15:00,5.206175595238102
2024-02-01 05:15:00,5.20004960317461
2024-02-01 06:15:00,5.217088293650801
2024-02-01 07:15:00,5.253273809523817
2024-02-01 08:15:00,5.26440972222223
2024-02-01 09:15:00,5.269742063492072
2024-02-01 10:15:00,5.268377976190485
2024-02-01 11:15:00,5.278472222222232
2024-02-01 12:15:00,5.269196428571438
2024-02-01 13:15:00,5.298883928571438
2024-02-01 14:15:00,5.30595238095239
2024-02-01 15:15:00,5.305555555555564
2024-02-01 16:15:00,5.313640873015882
2024-02-01 17:15:00,5.3154513888888975
2024-02-01 18:15:00,5.3165426587301665
2024-02-01 19:15:00,5.31408730158731
2024-02-01 20:15:00,5.317162698412706
2024-02-01 21:15:00,5.315674603174611
2024-02-01 22:15:00,5.3168154761904844
2024-02-01 23:15:00,5.32145337301588
2024-02-02 00:15:00,5.323288690476199
2024-02-02 01:15:00,5.319915674603182
2024-02-02 02:15:00,5.325223214285721
2024-02-02 03:15:00,5.3364087301587375
2024-02-02 04:15:00,5.353720238095245
2024-02-02 05:15:00,5.363169642857149
2024-02-02 06:15:00,5.37085813492064
2024-02-02 07:15:00,5.374950396825401
2024-02-02 08:15:00,5.363913690476195
2024-02-02 09:15:00,5.369965277777782
2024-02-02 10:15:00,5.374975198412702
2024-02-02 11:15:00,5.3786954365079405
2024-02-02 12:15:00,5.39821428571429
2024-02-02 13:15:00,5.407415674603179
2024-02-02 14:15:00,5.399032738095242
2024-02-02 15:15:00,5.364533730158733
2024-02-02 16:15:00,5.324975198412701
2024-02-02 17:15:00,5.309647817460321
2024-02-02 18:15:00,5.293452380952384
2024-02-02 19:15:00,5.274082341269843
2024-02-02 20:15:00,5.262227182539685
2024-02-02 21:15:00,5.260962301587304
2024-02-02 22:15:00,5.270411706349207
2024-02-02 23:15:00,5.282390873015873
2024-02-03 00:15:00,5.294196428571429
2024-02-03 01:15:00,5.305505952380953
2024-02-03 02:15:00,5.274503968253969
2024-02-03 03:15:00,5.257390873015874
2024-02-03 04:15:00,5.266889880952381
2024-02-03 05:15:00,5.260937500000002
2024-02-03 06:15:00,5.284176587301589
2024-02-03 07:15:00,5.318204365079367
2024-02-03 08:15:00,5.323784722222224
2024-02-03 09:15:00,5.272420634920637
2024-02-03 10:15:00,5.2584821428571455
2024-02-03 11:15:00,5.2725942460317485
2024-02-03 12:15:00,5.29231150793651
2024-02-03 13:15:00,5.297445436507938
2024-02-03 14:15:00,5.279216269841273
2024-02-03 15:15:00,5.285615079365082
2024-02-03 16:15:00,5.301016865079367
2024-02-03 17:15:00,5.305555555555558
2024-02-03 18:15:00,5.27559523809524
2024-02-03 19:15:00,5.278893849206351
2024-02-03 20:15:00,5.258630952380955
2024-02-03 21:15:00,5.258333333333335
2024-02-03 22:15:00,5.254117063492065
2024-02-03 23:15:00,5.226860119047621
2024-02-04 00:15:00,5.208457341269843
2024-02-04 01:15:00,5.158730158730161
2024-02-04 02:15:00,5.131349206349207
2024-02-04 03:15:00,5.069171626984128
2024-02-04 04:15:00,5.007713293650794
2024-02-04 05:15:00,4.983209325396826
2024-02-04 06:15:00,4.979365079365079
2024-02-04 07:15:00,4.977653769841269
2024-02-04 08:15:00,4.984573412698412
2024-02-04 09:15:00,4.9796875
2024-02-04 10:15:00,4.961135912698412
2024-02-04 11:15:00,4.960119047619046
2024-02-04 12:15:00,4.941096230158728
2024-02-04 13:15:00,4.881572420634917
2024-02-04 14:15:00,4.855778769841267
2024-02-04 15:15:00,4.856225198412696
2024-02-04 16:15:00,4.863442460317458
2024-02-04 17:15:00,4.847271825396824
2024-02-04 18:15:00,4.842485119047618
2024-02-04 19:15:00,4.849677579365078
2024-02-04 20:15:00,4.803943452380951
2024-02-04 21:15:00,4.759895833333331
2024-02-04 22:15:00,4.722519841269839
2024-02-04 23:15:00,4.698933531746029
2024-02-05 00:15:00,4.6971230158730135
2024-02-05 01:15:00,4.697197420634917
2024-02-05 02:15:00,4.629092261904758
2024-02-05 03:15:00,4.593377976190474
2024-02-05 04:15:00,4.55349702380952
2024-02-05 05:15:00,4.525496031746028
2024-02-05 06:15:00,4.506646825396821
2024-02-05 07:15:00,4.4949404761904725
2024-02-05 08:15:00,4.482217261904759
2024-02-05 09:15:00,4.4780753968253935
2024-02-05 10:15:00,4.446478174603171
2024-02-05 11:15:00,4.43350694444444
2024-02-05 12:15:00,4.434796626984123
2024-02-05 13:15:00,4.420882936507933
2024-02-05 14:15:00,4.3883184523809495
2024-02-05 15:15:00,4.388293650793648
2024-02-05 16:15:00,4.3798115079365045
2024-02-05 17:15:00,4.380133928571427
2024-02-05 18:15:00,4.384573412698411
2024-02-05 19:15:00,4.385590277777776
2024-02-05 20:15:00,4.38673115079365
2024-02-05 21:15:00,4.383308531746031
2024-02-05 22:15:00,4.36046626984127
2024-02-05 23:15:00,4.3407986111111105
2024-02-06 00:15:00,4.308903769841271
2024-02-06 01:15:00,4.283308531746034
2024-02-06 02:15:00,4.244122023809526
2024-02-06 03:15:00,4.198139880952384
2024-02-06 04:15:00,4.199627976190479
2024-02-06 05:15:00,4.159871031746034
2024-02-06 06:15:00,4.146205357142859
2024-02-06 07:15:00,4.14184027777778
2024-02-06 08:15:00,4.139980158730161
2024-02-06 09:15:00,4.1225198412698445
2024-02-06 10:15:00,4.121527777777781
2024-02-06 11:15:00,4.115004960317462
2024-02-06 12:15:00,4.116071428571431
2024-02-06 13:15:00,4.118774801587303
2024-02-06 14:15:00,4.118923611111113
2024-02-06 15:15:00,4.120684523809526
2024-02-06 16:15:00,4.121626984126986
2024-02-06 17:15:00,4.122916666666669
2024-02-06 18:15:00,4.112797619047621
2024-02-06 19:15:00,4.080853174603176
2024-02-06 20:15:00,4.044394841269842
2024-02-06 21:15:00,4.027108134920636
2024-02-06 22:15:00,4.022098214285714
2024-02-06 23:15:00,4.00657242063492
2024-02-07 00:15:00,4.000669642857143
2024-02-07 01:15:00,3.9653273809523806
2024-02-07 02:15:00,3.962475198412697
2024-02-07 03:15:00,3.954042658730157
2024-02-07 04:15:00,3.944221230158728
2024-02-07 05:15:00,3.9032242063492038
2024-02-07 06:15:00,3.8770089285714255
2024-02-07 07:15:00,3.906051587301585
2024-02-07 08:15:00,3.919022817460315
2024-02-07 09:15:00,3.9290426587301566
2024-02-07 10:15:00,3.931175595238094
2024-02-07 11:15:00,3.9429563492063475
2024-02-07 12:15:00,3.952579365079364
2024-02-07 13:15:00,3.9615575396825387
2024-02-07 14:15:00,3.9935515873015857
2024-02-07 15:15:00,4.039087301587301
2024-02-07 16:15:00,4.044394841269841
2024-02-07 17:15:00,4.068948412698412
2024-02-07 18:15:00,4.062475198412698
2024-02-07 19:15:00,4.051661706349206
2024-02-07 20:15:00,4.050124007936509
2024-02-07 21:15:00,4.048214285714285
2024-02-07 22:15:00,4.050520833333333
2024-02-07 23:15:00,4.0516121031746035
2024-02-08 00:15:00,4.046750992063492
2024-02-08 01:15:00,4.049181547619047
2024-02-08 02:15:00,4.050694444444444
2024-02-08 03:15:00,4.053968253968255
2024-02-08 04:15:00,4.048958333333333
2024-02-08 05:15:00,4.049677579365079
2024-02-08 06:15:00,4.0335069444444445
2024-02-08 07:15:00,3.999206349206349
2024-02-08 08:15:00,3.9886656746031752
2024-02-08 09:15:00,3.9824156746031756
2024-02-08 10:15:00,3.98514384920635
2024-02-08 11:15:00,3.974379960317461
2024-02-08 12:15:00,3.9674107142857147
2024-02-08 13:15:00,3.9390625000000004
2024-02-08 14:15:00,3.9339781746031752
2024-02-08 15:15:00,3.9372519841269855
2024-02-08 16:15:00,3.937673611111112
2024-02-08 17:15:00,3.9449156746031764
2024-02-08 18:15:00,3.943774801587303
2024-02-08 19:15:00,3.9403521825396837
2024-02-08 20:15:00,3.9345486111111114
2024-02-08 21:15:00,3.9336557539682544
2024-02-08 22:15:00,3.928794642857144
2024-02-08 23:15:00,3.9254960317460332
2024-02-09 00:15:00,3.923809523809525
2024-02-09 01:15:00,3.907986111111113
2024-02-09 02:15:00,3.9085069444444467
2024-02-09 03:15:00,3.917088293650795
2024-02-09 04:15:00,3.9010912698412703
2024-02-09 05:15:00,3.890897817460319
2024-02-09 06:15:00,3.885689484126985
2024-02-09 07:15:00,3.8779265873015882
2024-02-09 08:15:00,3.8699652777777787
2024-02-09 09:15:00,3.8638888888888894
2024-02-09 10:15:00,3.859995039682541
2024-02-09 11:15:00,3.853000992063493
2024-02-09 12:15:00,3.8313244047619057
2024-02-09 13:15:00,3.8208085317460325
2024-02-09 14:15:00,3.815699404761907
2024-02-09 15:15:00,3.8211061507936535
2024-02-09 16:15:00,3.836954365079368
2024-02-09 17:15:00,3.8374503968253992
2024-02-09 18:15:00,3.8397321428571454
2024-02-09 19:15:00,3.8432787698412727
2024-02-09 20:15:00,3.8409474206349237
2024-02-09 21:15:00,3.837177579365082
2024-02-09 22:15:00,3.8285466269841297
2024-02-09 23:15:00,3.8169146825396854
2024-02-10 00:15:00,3.804464285714289
2024-02-10 01:15:00,3.7911458333333368
2024-02-10 02:15:00,3.790997023809528
2024-02-10 03:15:00,3.7881448412698453
2024-02-10 04:15:00,3.772941468253973
2024-02-10 05:15:00,3.768874007936512
2024-02-10 06:15:00,3.742237103174608
2024-02-10 07:15:00,3.706894841269847
2024-02-10 08:15:00,3.6934771825396875
2024-02-10 09:15:00,3.679861111111116
2024-02-10 10:15:00,3.673214285714291
2024-02-10 11:15:00,3.6614335317460376
2024-02-10 12:15:00,3.6453869047619105
2024-02-10 13:15:00,3.64037698412699
2024-02-10 14:15:00,3.631398809523815
2024-02-10 15:15:00,3.6274057539682603
2024-02-10 16:15:00,3.6288690476190544
2024-02-10 17:15:00,3.6308779761904826
2024-02-10 18:15:00,3.6032490079365154
2024-02-10 19:15:00,3.572569444444452
2024-02-10 20:15:00,3.612375992063499
2024-02-10 21:15:00,3.6087549603174685
2024-02-10 22:15:00,3.5970982142857224
2024-02-10 23:15:00,3.59955357142858
2024-02-11 00:15:00,3.5969990079365166
2024-02-11 01:15:00,3.5985615079365165
2024-02-11 02:15:00,3.610119047619056
2024-02-11 03:15:00,3.6075644841269927
2024-02-11 04:15:00,3.6086805555555643
2024-02-11 05:15:00,3.6116567460317546
2024-02-11 06:15:00,3.603645833333342
2024-02-11 07:15:00,3.6049851190476283
2024-02-11 08:15:00,3.5988839285714382
2024-02-11 09:15:00,3.593576388888899
2024-02-11 10:15:00,3.591840277777789
2024-02-11 11:15:00,3.5923115079365195
2024-02-11 12:15:00,3.5934523809523915
2024-02-11 13:15:00,3.595089285714296
2024-02-11 14:15:00,3.5950892857142955
2024-02-11 15:15:00,3.5896577380952475
2024-02-11 16:15:00,3.5658234126984225
2024-02-11 17:15:00,3.54563492063493
2024-02-11 18:15:00,3.5493799603174687
2024-02-11 19:15:00,3.5404017857142933
2024-02-11 20:15:00,3.5406498015873096
2024-02-11 21:15:00,3.542757936507945
2024-02-11 22:15:00,3.5464533730158814
2024-02-11 23:15:00,3.5512648809523895
2024-02-12 00:15:00,3.554141865079374
2024-02-12 01:15:00,3.5568700396825492
2024-02-12 02:15:00,3.5571924603174705
2024-02-12 03:15:00,3.560962301587312
2024-02-12 04:15:00,3.558159722222232
2024-02-12 05:15:00,3.563070436507946
2024-02-12 06:15:00,3.5676587301587395
2024-02-12 07:15:00,3.5725694444444533
2024-02-12 08:15:00,3.5762896825396924
2024-02-12 09:15:00,3.5787698412698514
2024-02-12 10:15:00,3.583482142857153
2024-02-12 11:15:00,3.606919642857153
2024-02-12 12:15:00,3.61624503968255
2024-02-12 13:15:00,3.626537698412708
2024-02-12 14:15:00,3.643898809523818
2024-02-12 15:15:00,3.687425595238104
2024-02-12 16:15:00,3.740699404761912
2024-02-12 17:15:00,3.7450644841269902
2024-02-12 18:15:00,3.744618055555562
2024-02-12 19:15:00,3.7499255952381016
2024-02-12 20:15:00,3.752157738095244
2024-02-12 21:15:00,3.7563740079365138
2024-02-12 22:15:00,3.758903769841276
2024-02-12 23:15:00,3.7614335317460386
2024-02-13 00:15:00,3.7658978174603237
2024-02-13 01:15:00,3.779613095238101
2024-02-13 02:15:00,3.784077380952386
2024-02-13 03:15:00,3.788740079365083
2024-02-13 04:15:00,3.792261904761909
2024-02-13 05:15:00,3.7971478174603224
2024-02-13 06:15:00,3.799627976190481
2024-02-13 07:15:00,3.8008432539682584
2024-02-13 08:15:00,3.8039434523809557
2024-02-13 09:15:00,3.8050099206349235
2024-02-13 10:15:00,3.8120039682539706
2024-02-13 11:15:00,3.8174603174603203
2024-02-13 12:15:00,3.818353174603177
2024-02-13 13:15:00,3.814632936507939
2024-02-13 14:15:00,3.8156250000000025
2024-02-13 15:15:00,3.816567460317463
2024-02-13 16:15:00,3.8166170634920658
2024-02-13 17:15:00,3.8182043650793682
2024-02-13 18:15:00,3.8211061507936535
2024-02-13 19:15:00,3.823933531746035
2024-02-13 20:15:00,3.824107142857147
2024-02-13 21:15:00,3.825768849206354
2024-02-13 22:15:00,3.8301339285714344
2024-02-13 23:15:00,3.8312003968254027
2024-02-14 00:15:00,3.833705357142864
2024-02-14 01:15:00,3.830034722222229
2024-02-14 02:15:00,3.8283482142857217
2024-02-14 03:15:00,3.8293898809523887
2024-02-14 04:15:00,3.8310763888888975
2024-02-14 05:15:00,3.8386656746031824
2024-02-14 06:15:00,3.8352926587301654
2024-02-14 07:15:00,3.787648809523816
2024-02-14 08:15:00,3.768898809523816
2024-02-14 09:15:00,3.7622271825396894
2024-02-14 10:15:00,3.7636904761904826
2024-02-14 11:15:00,3.7572420634920696
2024-02-14 12:15:00,3.7435019841269894
2024-02-14 13:15:00,3.735813492063498
2024-02-14 14:15:00,3.7073908730158793
2024-02-14 15:15:00,3.6659474206349265
2024-02-14 16:15:00,3.6691220238095292
2024-02-14 17:15:00,3.645758928571434
2024-02-14 18:15:00,3.6501736111111156
2024-02-14 19:15:00,3.6496279761904806
2024-02-14 20:15:00,3.6448908730158767
2024-02-14 21:15:00,3.6464037698412732
2024-02-14 22:15:00,3.6452876984127016
2024-02-14 23:15:00,3.6456597222222253
2024-02-15 00:15:00,3.6465277777777807
2024-02-15 01:15:00,3.643948412698416
2024-02-15 02:15:00,3.637326388888892
2024-02-15 03:15:00,3.636532738095241
2024-02-15 04:15:00,3.6365079365079405
2024-02-15 05:15:00,3.6361607142857175
2024-02-15 06:15:00,3.6341517857142884
2024-02-15 07:15:00,3.635838293650797
2024-02-15 08:15:00,3.6373263888888907
2024-02-15 09:15:00,3.6431547619047637
2024-02-15 10:15:00,3.6411210317460334
2024-02-15 11:15:00,3.647495039682542
2024-02-15 12:15:00,3.6525049603174633
2024-02-15 13:15:00,3.6533482142857174
2024-02-15 14:15:00,3.6566964285714314
2024-02-15 15:15:00,3.6546130952380973
2024-02-15 16:15:00,3.6459077380952403
2024-02-15 17:15:00,3.6386408730158757
2024-02-15 18:15:00,3.6380208333333353
2024-02-15 19:15:00,3.639310515873018
2024-02-15 20:15:00,3.6405009920634948
2024-02-15 21:15:00,3.64042658730159
2024-02-15 22:15:00,3.643229166666669
2024-02-15 23:15:00,3.645337301587304
2024-02-16 00:15:00,3.644618055555558
2024-02-16 01:15:00,3.646478174603177
2024-02-16 02:15:00,3.6406994047619063
2024-02-16 03:15:00,3.6264384920634942
2024-02-16 04:15:00,3.6279761904761934
2024-02-16 05:15:00,3.631622023809526
2024-02-16 06:15:00,3.631324404761908
2024-02-16 07:15:00,3.6300843253968287
2024-02-16 08:15:00,3.6306299603174637
2024-02-16 09:15:00,3.6316716269841316
2024-02-16 10:15:00,3.6298859126984167
2024-02-16 11:15:00,3.629290674603178
2024-02-16 12:15:00,3.6311011904761936
2024-02-16 13:15:00,3.6325396825396856
2024-02-16 14:15:00,3.634697420634923
2024-02-16 15:15:00,3.6334573412698434
2024-02-16 16:15:00,3.624553571428574
2024-02-16 17:15:00,3.62574404761905
2024-02-16 18:15:00,3.6220734126984153
2024-02-16 19:15:00,3.61542658730159
2024-02-16 20:15:00,3.61542658730159
2024-02-16 21:15:00,3.613764880952384
2024-02-16 22:15:00,3.6143601190476238
2024-02-16 23:15:00,3.614037698412703
2024-02-17 00:15:00,3.613963293650797
2024-02-17 01:15:00,3.615773809523813
2024-02-17 02:15:00,3.616096230158733
2024-02-17 03:15:00,3.6160962301587327
2024-02-17 04:15:00,3.6191220238095254
2024-02-17 05:15:00,3.6370287698412707
2024-02-17 06:15:00,3.6723958333333337
2024-02-17 07:15:00,3.684499007936508
2024-02-17 08:15:00,3.6851686507936514
2024-02-17 09:15:00,3.6874255952380954
2024-02-17 10:15:00,3.6875496031746033
2024-02-17 11:15:00,3.691170634920635
2024-02-17 12:15:00,3.6895833333333328
2024-02-17 13:15:00,3.6890128968253966
2024-02-17 14:15:00,3.6905505952380944
2024-02-17 15:15:00,3.6821180555555535
2024-02-17 16:15:00,3.6581349206349176
2024-02-17 17:15:00,3.645758928571426
2024-02-17 18:15:00,3.658482142857139
2024-02-17 19:15:00,3.6503968253968204
2024-02-17 20:15:00,3.613318452380948
2024-02-17 21:15:00,3.5893849206349167
2024-02-17 22:15:00,3.5817212301587267
2024-02-17 23:15:00,3.5775049603174573
2024-02-18 00:15:00,3.583680555555552
2024-02-18 01:15:00,3.584474206349203
2024-02-18 02:15:00,3.5775545634920602
2024-02-18 03:15:00,3.5817212301587267
2024-02-18 04:15:00,3.5827876984126954
2024-02-18 05:15:00,3.5778273809523773
2024-02-18 06:15:00,3.5764632936507903
2024-02-18 07:15:00,3.5822668650793617
2024-02-18 08:15:00,3.584722222222219
2024-02-18 09:15:00,3.580629960317457
2024-02-18 10:15:00,3.581101190476186
2024-02-18 11:15:00,3.587698412698409
2024-02-18 12:15:00,3.5926339285714253
2024-02-18 13:15:00,3.5967509920634897
2024-02-18 14:15:00,3.5979662698412676
2024-02-18 15:15:00,3.602752976190474
2024-02-18 16:15:00,3.6020089285714256
2024-02-18 17:15:00,3.6031001984126956
2024-02-18 18:15:00,3.6039682539682523
2024-02-18 19:15:00,3.607142857142855
2024-02-18 20:15:00,3.6159226190476166
2024-02-18 21:15:00,3.637202380952378
2024-02-18 22:15:00,3.655605158730156
2024-02-18 23:15:00,3.6567212301587273
2024-02-19 00:15:00,3.661706349206346
2024-02-19 01:15:00,3.671254960317458
2024-02-19 02:15:00,3.6769841269841246
2024-02-19 03:15:00,3.673536706349204
2024-02-19 04:15:00,3.676884920634919
2024-02-19 05:15:00,3.677752976190475
2024-02-19 06:15:00,3.670684523809523
2024-02-19 07:15:00,3.6654513888888878
2024-02-19 08:15:00,3.6692460317460296
2024-02-19 09:15:00,3.6719246031746002
2024-02-19 10:15:00,3.667981150793647
2024-02-19 11:15:00,3.6431051587301564
2024-02-19 12:15:00,3.645163690476188
2024-02-19 13:15:00,3.6384424603174588
2024-02-19 14:15:00,3.624627976190475
2024-02-19 15:15:00,3.58628472222222
2024-02-19 16:15:00,3.537003968253967
2024-02-19 17:15:00,3.5343501984126973
2024-02-19 18:15:00,3.5258432539682523
2024-02-19 19:15:00,3.5223710317460295
2024-02-19 20:15:00,3.5251488095238077
2024-02-19 21:15:00,3.5257688492063473
2024-02-19 22:15:00,3.527281746031743
2024-02-19 23:15:00,3.5273065476190446
2024-02-20 00:15:00,3.526165674603172
2024-02-20 01:15:00,3.5193204365079342
2024-02-20 02:15:00,3.5164186507936486
2024-02-20 03:15:00,3.5195436507936493
2024-02-20 04:15:00,3.5245535714285685
2024-02-20 05:15:00,3.5268353174603146
2024-02-20 06:15:00,3.5385168650793624
2024-02-20 07:15:00,3.5475942460317436
2024-02-20 08:15:00,3.56034226190476
2024-02-20 09:15:00,3.5725694444444427
2024-02-20 10:15:00,3.571775793650792
2024-02-20 11:15:00,3.5699900793650787
2024-02-20 12:15:00,3.578695436507936
2024-02-20 13:15:00,3.581994047619047
2024-02-20 14:15:00,3.586284722222221
2024-02-20 15:15:00,3.588616071428571
2024-02-20 16:15:00,3.5880208333333328
2024-02-20 17:15:00,3.5877976190476177
2024-02-20 18:15:00,3.5906746031746026
2024-02-20 19:15:00,3.5967013888888877
2024-02-20 20:15:00,3.6050099206349193
2024-02-20 21:15:00,3.608035714285712
2024-02-20 22:15:00,3.6108382936507906
2024-02-20 23:15:00,3.6139880952380925
2024-02-21 00:15:00,3.617509920634918
2024-02-21 01:15:00,3.621155753968251
2024-02-21 02:15:00,3.6308035714285674
2024-02-21 03:15:00,3.6405753968253936
2024-02-21 04:15:00,3.6505952380952342
2024-02-21 05:15:00,3.648536706349204
2024-02-21 06:15:00,3.6537450396825384
2024-02-21 07:15:00,3.654737103174602
2024-02-21 08:15:00,3.683655753968253
2024-02-21 09:15:00,3.6971230158730144
2024-02-21 10:15:00,3.700843253968252
2024-02-21 11:15:00,3.703224206349205
2024-02-21 12:15:00,3.698933531746031
2024-02-21 13:15:00,3.6974702380952373
2024-02-21 14:15:00,3.69781746031746
2024-02-21 15:15:00,3.7013640873015867
2024-02-21 16:15:00,3.7026785714285704
2024-02-21 17:15:00,3.70359623015873
2024-02-21 18:15:00,3.70530753968254
2024-02-21 19:15:00,3.703596230158731
2024-02-21 20:15:00,3.703149801587302
2024-02-21 21:15:00,3.702430555555557
2024-02-21 22:15:00,3.7033730158730176
2024-02-21 23:15:00,3.7033978174603197
2024-02-22 00:15:00,3.7033730158730185
2024-02-22 01:15:00,3.7027281746031764
2024-02-22 02:15:00,3.7034722222222234
2024-02-22 03:15:00,3.7062996031746036
2024-02-22 04:15:00,3.7109871031746033
2024-02-22 05:15:00,3.7111111111111112
2024-02-22 06:15:00,3.7185267857142867
2024-02-22 07:15:00,3.7217757936507945
2024-02-22 08:15:00,3.738244047619049
2024-02-22 09:15:00,3.7402777777777794
2024-02-22 10:15:00,3.7442956349206367
2024-02-22 11:15:00,3.741741071428573
2024-02-22 12:15:00,3.7413938492063505
2024-02-22 13:15:00,3.742410714285716
2024-02-22 14:15:00,3.7401041666666686
2024-02-22 15:15:00,3.747023809523811
2024-02-22 16:15:00,3.75684523809524
2024-02-22 17:15:00,3.76607142857143
2024-02-22 18:15:00,3.771775793650797
2024-02-22 19:15:00,3.7798363095238123
2024-02-22 20:15:00,3.782986111111115
2024-02-22 21:15:00,3.790426587301591
2024-02-22 22:15:00,3.796230158730163
2024-02-22 23:15:00,3.8006448412698455
2024-02-23 00:15:00,3.8024801587301624
2024-02-23 01:15:00,3.8028521825396857
2024-02-23 02:15:00,3.805406746031749
2024-02-23 03:15:00,3.8066220238095276
2024-02-23 04:15:00,3.8101190476190516
2024-02-23 05:15:00,3.810218253968258
2024-02-23 06:15:00,3.8133928571428606
2024-02-23 07:15:00,3.846750992063496
2024-02-23 08:15:00,3.867187500000004
2024-02-23 09:15:00,3.8719246031746066
2024-02-23 10:15:00,3.878645833333337
2024-02-23 11:15:00,3.8836309523809573
2024-02-23 12:15:00,3.8875992063492117
2024-02-23 13:15:00,3.8859623015873073
2024-02-23 14:15:00,3.8940972222222276
2024-02-23 15:15:00,3.898635912698418
2024-02-23 16:15:00,3.8957837301587355
2024-02-23 17:15:00,3.901562500000005
2024-02-23 18:15:00,3.9097470238095298
2024-02-23 19:15:00,3.9143105158730225
2024-02-23 20:15:00,3.9144345238095304
2024-02-23 21:15:00,3.9176835317460372
2024-02-23 22:15:00,3.9182043650793705
2024-02-23 23:15:00,3.922271825396831
2024-02-24 00:15:00,3.9235119047619116
2024-02-24 01:15:00,3.9287946428571496
2024-02-24 02:15:00,3.936780753968261
2024-02-24 03:15:00,3.9428819444444536
2024-02-24 04:15:00,3.9416418650793736
2024-02-24 05:15:00,3.9331845238095333
2024-02-24 06:15:00,3.904712301587311
2024-02-24 07:15:00,3.8937748015873104
2024-02-24 08:15:00,3.8955109126984206
2024-02-24 09:15:00,3.898263888888898
2024-02-24 10:15:00,3.8999255952381056
2024-02-24 11:15:00,3.90233134920636
2024-02-24 12:15:00,3.9067956349206465
2024-02-24 13:15:00,3.916716269841282
2024-02-24 14:15:00,3.9452132936508066
2024-02-24 15:15:00,3.9681547619047755
2024-02-24 16:15:00,3.9659722222222364